Location: Bald Rock
(37.3738°N, 119.9354°W)
Time: 21:51:44
(UTC+00:00)

SeaSat 1 - Pass Details

Date: 08 September 2024
Orbit: 740 x 742 km, 108.0° (Epoch: 12 October)

Event Time Altitude Azimuth Distance (km) Brightness Sun altitude
Rises 13:06:52 0° 204° (SSW) 3,160 5.3 -6.6°
Reaches altitude 10° 13:10:41 10° 235° (SW) 2,245 4.4 -5.9°
Maximum altitude 13:12:29 12° 257° (WSW) 2,118 4.1 -5.6°
Drops below altitude 10° 13:14:17 10° 279° (W) 2,252 4.3 -5.2°
Sets 13:18:09 0° 310° (NW) 3,182 5.3 -4.4°
